Vorticity
6 5 7 5 5 6 6 7 6 7 8 8 17 22 16 16 3 -4 8 1 -1 5 4 3 7 9 3 5 7 1 -0 0 -3 -1 1 -3 -2 -0 2 6 8 7 7 7 4 7 7 6 8 10 11 9 7 9 8 7 6 5 5 4 4 4 4 3 4 4 4 5 5 5 5 7 8 7 6 5 6 6 6 6 7 7 7 8 9 11 11 10 9 8 7 6 6 8 8 5 6
6 6 7 5 6 7 7 6 8 8 6 16 25 19 14 18 10 0 3 0 -4 1 5 5 6 6 1 -1 4 7 5 1 -1 2 -0 -3 -3 -6 -3 3 7 8 8 9 8 10 7 4 5 5 7 10 9 9 8 7 6 4 4 3 3 3 3 3 4 5 5 6 5 6 6 7 8 7 7 5 6 6 7 7 7 8 7 8 9 10 11 10 10 8 6 6 6 8 9 6 6
6 7 6 7 7 7 7 6 9 6 9 25 23 15 15 13 12 7 2 2 0 -0 4 6 4 3 4 1 -1 2 -1 -8 -7 -1 -4 -4 -3 -2 5 5 5 6 7 7 6 6 5 7 4 2 6 11 10 7 7 6 4 4 4 2 3 2 3 4 4 5 6 6 6 7 7 6 8 7 6 5 6 6 7 7 7 9 7 8 8 9 11 9 9 8 5 6 6 7 9 7 6
6 6 6 7 6 6 7 6 9 5 20 37 21 10 10 5 10 7 -1 4 5 1 2 3 0 2 6 4 0 -4 -6 -9 -7 -2 -2 4 6 13 17 9 8 7 5 4 8 5 1 8 1 -1 8 10 8 7 7 5 4 4 4 3 3 3 3 4 4 6 6 7 7 7 7 6 8 7 6 5 6 6 7 7 7 8 7 7 9 9 10 9 10 10 5 4 5 5 8 9 7
6 6 6 5 5 6 6 7 8 7 28 33 13 5 5 7 7 3 1 4 7 4 1 2 0 1 4 2 1 1 2 1 4 12 15 17 9 8 8 9 11 5 12 7 1 4 1 5 -0 -0 8 9 7 6 6 4 6 5 4 3 2 3 3 5 5 6 6 6 7 7 7 7 8 8 7 6 6 7 6 7 7 7 7 8 10 10 9 9 11 11 7 4 4 3 6 10 7
6 6 5 5 6 7 6 8 6 12 31 20 3 7 8 11 2 -5 3 4 6 6 1 3 2 0 4 1 -1 0 4 7 9 11 11 13 8 7 2 10 10 6 50 44 -0 -0 4 4 0 3 7 7 7 4 7 5 6 4 2 3 2 4 4 6 6 6 7 5 6 6 6 6 7 7 7 7 7 7 6 6 7 7 8 8 10 10 8 9 11 11 9 5 4 2 2 8 8
5 6 7 7 7 7 6 8 7 14 33 21 3 9 8 7 2 -7 -0 1 -2 1 1 5 5 3 4 1 1 0 5 10 6 2 2 6 4 9 5 9 10 7 52 48 7 4 -0 3 1 1 5 5 8 5 7 5 4 4 2 3 2 4 5 6 7 7 7 6 6 5 6 6 6 7 7 8 7 7 7 7 7 8 9 8 8 10 9 9 10 10 10 6 3 3 1 4 6
5 6 6 6 5 7 6 8 13 16 31 28 4 5 7 -1 3 -3 -4 -1 -4 3 6 5 5 4 4 4 5 3 7 5 -2 2 11 20 12 12 5 1 9 6 21 13 6 17 -2 1 4 -2 6 7 7 5 6 5 4 4 2 3 3 4 5 6 7 7 7 6 6 6 7 7 6 7 7 8 7 7 7 8 7 8 10 9 7 9 9 10 9 8 10 9 4 4 2 1 4
6 7 6 7 5 7 10 8 16 19 27 30 6 2 8 -2 2 2 -3 0 1 8 9 5 4 0 2 4 1 -1 3 -3 -4 5 10 20 18 15 5 -2 7 5 23 16 -2 14 6 3 4 0 9 8 7 6 5 4 3 3 2 3 4 5 6 7 7 6 6 6 6 7 8 8 7 7 7 8 8 8 8 8 7 8 10 9 8 7 8 10 10 7 8 9 7 6 4 2 2
7 6 6 8 6 7 9 8 14 13 19 29 10 -2 6 5 5 3 -0 5 6 7 7 7 6 1 -0 -1 -3 -4 -4 -4 1 10 4 4 10 14 7 1 6 3 28 35 9 14 14 3 4 6 10 7 7 6 3 4 3 3 2 3 5 7 7 7 7 7 7 7 7 8 7 7 7 7 7 7 8 8 8 9 8 8 11 10 8 7 8 10 10 8 7 6 7 7 7 5 3
8 7 7 7 7 8 5 10 15 8 15 28 14 -1 2 4 2 -6 -6 5 6 2 3 3 5 5 6 3 1 -1 -4 -0 3 5 -0 -4 2 7 7 1 8 15 22 36 31 22 14 5 8 11 10 9 6 4 2 4 3 2 3 5 7 7 8 7 7 7 6 7 8 8 7 6 7 7 7 7 7 8 8 8 8 8 11 12 9 8 7 9 10 8 7 5 5 6 7 8 5
8 8 8 7 8 7 6 14 15 11 20 26 16 6 -1 -2 -0 -7 -4 11 5 -1 3 -2 0 4 4 7 8 8 7 8 7 6 6 4 7 4 7 4 11 23 10 23 30 15 17 12 10 13 9 8 4 3 3 3 2 3 5 6 8 7 7 7 6 6 5 6 7 7 7 6 7 7 7 7 7 8 8 7 6 7 10 13 10 7 7 9 10 8 7 6 5 5 5 7 7
8 7 7 8 8 7 10 14 18 22 23 21 17 11 -2 -6 1 -0 2 12 8 3 6 1 3 5 1 6 7 11 17 21 19 20 20 12 9 2 4 5 10 18 8 19 8 -3 28 22 10 13 7 6 3 3 3 2 3 4 6 7 9 8 6 6 5 5 6 7 6 5 6 7 7 7 7 7 8 8 9 9 8 8 9 12 11 7 6 8 8 6 6 6 6 6 4 5 6
8 7 6 8 9 11 12 12 26 24 15 17 13 10 1 -13 -9 1 2 6 11 6 5 4 6 6 5 10 2 -0 10 16 17 20 22 14 9 3 6 3 4 17 19 17 -19 -27 24 24 11 12 5 6 3 4 4 3 5 5 9 9 8 7 5 6 5 6 6 6 6 6 6 7 8 8 9 9 9 9 9 10 9 9 9 10 11 9 7 7 6 4 4 5 6 7 6 5 5
9 10 8 9 11 13 11 16 32 16 3 9 1 9 10 -5 -7 1 1 2 11 10 8 7 1 2 8 11 2 -4 0 2 7 15 17 13 11 5 8 8 7 19 19 16 -13 -30 10 23 14 12 6 6 2 3 3 3 6 7 9 7 5 4 5 6 7 7 6 6 5 7 7 6 7 9 11 11 11 11 10 10 10 10 9 9 10 9 6 6 6 5 5 5 6 7 8 7 7
7 8 8 11 13 14 13 19 30 6 -5 3 -1 8 5 -1 4 4 1 -4 3 6 4 6 3 3 1 1 2 2 5 8 10 14 15 10 9 6 8 12 13 17 12 17 -0 -29 2 25 13 8 4 2 2 3 5 8 8 7 7 4 5 4 5 6 5 6 5 6 6 7 8 7 8 9 10 9 9 10 9 9 8 8 9 9 9 9 7 6 6 6 6 7 7 8 9 8 8
7 9 9 11 13 16 16 19 25 6 -2 4 4 6 -1 1 2 4 10 2 3 3 -1 2 1 -2 -5 -0 5 3 6 16 15 10 18 21 17 12 9 11 12 13 8 11 0 -17 11 23 6 4 3 4 7 8 10 9 7 7 6 5 6 5 6 6 4 5 6 7 7 7 8 8 8 9 9 9 8 8 9 9 8 8 8 9 8 8 7 6 6 6 7 7 8 9 9 9 8
8 10 9 11 14 16 16 19 22 12 4 5 4 -3 -2 12 3 -3 11 12 7 3 2 0 -1 5 12 21 23 20 12 8 10 8 10 9 9 12 10 10 11 12 8 8 13 17 24 14 4 6 4 7 8 8 7 5 6 6 6 5 5 6 7 7 6 7 8 8 7 7 7 8 9 9 10 10 11 9 9 9 8 8 7 8 7 7 8 7 7 7 8 8 9 10 11 10 8
8 7 9 14 14 12 17 21 13 8 7 5 4 -8 -9 11 9 -5 6 19 13 4 7 7 13 22 20 22 26 31 25 9 9 9 2 -6 -5 1 1 3 6 8 10 11 14 18 15 7 6 4 2 6 5 5 4 4 8 6 5 6 6 8 8 8 9 8 8 8 7 8 8 10 10 9 8 8 11 11 8 8 9 8 6 7 7 7 8 8 9 9 10 11 11 11 12 11 9
8 7 11 13 10 7 15 23 10 3 9 6 0 -7 -10 -1 4 2 3 13 14 7 9 7 8 12 8 8 11 19 23 16 10 7 7 4 4 6 2 3 8 13 15 13 12 12 11 8 4 3 5 6 4 5 6 7 7 7 7 7 8 8 8 9 9 8 8 7 7 9 10 11 10 9 9 8 11 12 9 7 7 9 9 9 9 8 9 10 11 11 11 12 12 12 12 12 10
9 10 13 10 8 8 8 15 10 2 7 4 -5 -5 -1 -0 1 3 2 6 9 8 9 3 -2 6 12 11 10 13 11 12 13 13 15 13 14 14 11 10 17 40 49 33 21 16 11 9 6 7 7 5 7 7 7 9 8 9 9 8 9 7 8 8 7 8 7 7 8 9 11 12 12 11 9 9 10 12 11 9 8 9 9 9 9 9 10 10 8 8 9 8 10 11 12 11 10
8 10 11 8 9 12 8 9 10 6 2 -4 -5 1 6 13 14 3 3 11 10 11 12 6 6 12 15 13 12 11 7 10 11 13 15 16 18 14 10 7 12 37 49 31 18 13 8 8 7 5 6 6 8 8 7 8 8 9 9 8 9 8 9 8 7 8 7 8 8 9 11 13 14 12 9 9 9 11 11 12 14 13 10 7 8 9 8 7 6 8 9 7 7 10 11 10 9
7 7 8 7 8 9 7 8 10 8 2 -5 -3 3 1 12 20 3 -1 9 9 17 17 12 15 13 10 12 14 13 9 6 6 11 10 7 11 15 14 10 14 22 19 19 20 12 3 1 3 3 5 6 5 7 7 7 7 6 7 8 8 9 10 10 10 9 9 9 9 10 11 12 12 11 10 10 10 12 9 7 10 12 10 9 9 9 7 7 10 12 11 6 5 7 10 11 9
5 6 6 6 6 7 4 5 7 5 5 3 2 7 7 9 14 6 4 6 8 13 11 10 13 10 8 9 11 14 12 8 8 9 6 -0 -1 11 19 11 20 26 10 12 12 1 -3 -6 -2 3 3 5 5 5 5 5 6 6 7 9 9 9 9 10 11 11 11 11 11 11 12 13 13 13 13 14 13 11 10 8 7 8 9 10 8 7 7 8 11 12 11 9 7 6 7 9 9
6 7 7 6 5 6 5 2 4 4 4 5 8 15 15 8 7 8 7 6 8 9 6 8 9 7 9 9 8 7 10 14 9 5 7 7 1 5 14 11 19 29 11 -4 -7 -3 5 1 -1 4 5 6 5 5 6 5 6 7 8 9 9 9 9 11 12 12 12 11 12 13 14 14 12 12 13 15 14 9 10 12 11 11 10 10 7 6 8 9 10 10 10 11 11 10 7 6 7
7 7 6 7 6 7 7 4 3 2 2 7 11 16 14 8 7 5 5 5 6 8 6 6 7 7 6 7 8 5 7 12 18 30 21 5 6 4 4 9 14 27 21 -3 -6 4 1 -2 2 6 6 6 6 7 7 7 6 6 7 7 8 9 11 11 12 12 12 11 12 12 14 14 11 12 14 16 13 9 10 10 11 12 10 8 7 7 8 9 9 9 10 11 11 11 10 10 9
6 7 6 7 7 7 7 6 5 1 1 3 3 6 7 7 11 6 4 6 5 5 5 6 8 8 9 8 7 10 12 9 17 29 8 -9 7 7 2 9 8 24 32 2 -6 1 -10 -8 1 1 3 4 6 6 6 7 7 6 6 7 7 8 10 10 10 11 10 10 11 11 13 15 14 14 18 17 10 8 8 8 9 9 7 6 7 8 8 7 7 9 9 7 7 8 10 12 14
5 5 6 6 6 6 7 9 7 3 1 1 3 7 4 5 12 8 5 7 6 7 7 9 10 8 10 6 0 5 9 8 10 10 4 4 11 8 6 8 3 15 24 3 -10 -12 -16 -5 0 -2 2 3 4 5 6 7 6 7 7 8 9 8 9 10 10 10 9 9 10 11 11 12 15 16 18 13 8 8 8 9 10 8 7 7 8 10 10 8 7 7 6 5 7 8 9 8 11
5 4 3 5 8 10 13 14 11 9 8 6 8 10 5 6 7 3 5 7 6 9 9 7 7 5 3 1 2 6 7 7 9 11 16 17 10 8 9 7 6 7 15 22 19 10 3 2 0 -1 2 3 5 7 7 8 8 10 11 10 10 8 8 9 9 9 9 9 9 9 8 9 16 18 17 13 10 10 9 11 11 7 5 6 7 8 9 9 8 7 6 6 7 6 9 12 13
8 9 8 10 15 15 13 13 12 11 11 9 8 9 9 9 7 6 7 7 8 9 9 8 6 8 9 9 12 12 9 9 10 12 15 18 12 10 10 9 11 8 16 29 27 28 23 7 1 3 4 4 6 6 6 8 9 10 12 12 9 7 8 8 8 7 7 8 8 8 9 9 13 12 11 14 14 11 12 12 11 8 6 6 8 7 7 8 8 7 6 8 8 9 13 16 15
6 10 14 17 21 17 16 18 16 13 10 9 11 15 15 10 7 10 9 7 7 3 2 8 12 20 21 17 19 15 10 11 12 10 11 16 13 12 12 9 15 15 17 18 9 19 22 7 5 5 4 6 5 6 6 7 9 10 12 11 10 7 6 7 8 8 8 9 9 9 9 9 10 10 10 13 14 13 15 14 11 11 8 6 7 9 10 10 9 10 9 10 11 11 12 10 7
8 12 12 13 12 11 15 19 18 15 13 15 14 15 16 13 8 7 10 9 5 5 3 -1 2 9 -1 -6 9 13 7 6 7 7 11 17 15 14 10 8 22 19 11 8 -2 12 19 5 6 6 4 8 5 6 6 6 8 8 10 11 10 8 7 8 8 9 9 9 10 9 9 8 8 10 11 11 12 13 13 12 13 12 9 8 8 9 10 10 9 10 10 9 8 9 10 7 4
12 11 10 10 8 8 11 15 12 2 7 20 20 17 17 17 11 1 5 8 7 13 9 -5 -1 3 -10 -4 17 14 7 7 6 7 10 15 15 15 11 7 17 13 6 -1 -18 0 18 3 4 8 6 7 5 7 7 7 7 6 8 7 8 9 8 9 9 10 10 10 10 10 9 7 6 8 8 9 10 10 9 8 10 10 8 9 9 7 7 7 8 10 9 6 6 9 11 11 10
10 10 15 17 17 17 10 9 6 -9 -2 13 17 26 23 16 13 6 8 13 12 9 4 2 4 3 -3 4 12 2 2 6 6 9 6 10 15 19 23 12 12 11 -4 -21 -28 -3 15 2 2 6 7 9 7 8 8 7 7 6 7 6 7 9 8 8 8 9 11 10 10 9 10 9 8 8 8 10 10 9 7 6 6 6 5 6 6 6 5 4 6 7 7 6 7 10 11 11 13
11 18 16 9 12 18 9 6 4 -9 -1 8 17 34 23 8 9 7 9 11 11 6 5 9 3 2 -2 -6 1 7 13 11 6 8 4 7 10 18 34 23 15 7 -21 -26 -6 8 11 6 4 1 5 11 8 8 9 7 8 9 9 9 9 8 8 8 8 8 9 10 10 9 10 10 10 11 10 11 11 9 8 7 6 5 4 4 5 5 4 4 6 6 6 7 8 8 8 9 9
19 23 12 1 -1 8 11 16 12 1 8 13 21 29 8 4 9 0 -1 1 4 3 3 6 1 4 -0 -3 17 26 20 11 5 6 6 9 6 13 41 36 8 -16 -32 -11 11 9 7 9 4 1 7 13 10 9 8 7 8 8 8 10 11 11 10 9 9 9 8 8 10 10 10 9 8 9 10 11 10 8 7 7 7 6 5 5 4 5 5 5 5 6 6 7 7 6 6 6 7
24 18 9 0 -9 -1 7 10 13 11 12 5 10 18 -0 -0 10 2 1 2 1 -0 -1 4 5 8 7 19 40 33 22 15 5 5 4 6 4 6 26 23 -4 -22 -19 3 12 8 8 6 6 10 14 14 10 9 8 7 8 6 5 5 8 11 13 11 9 8 8 9 9 10 10 10 8 7 8 10 10 9 8 9 9 8 8 7 6 6 6 6 6 7 7 7 6 6 5 5 6
21 8 1 -3 -8 7 9 -2 10 19 10 -1 2 13 1 -5 2 2 3 2 -1 -1 2 5 6 6 6 15 17 8 15 18 7 6 2 2 7 7 12 12 5 1 3 9 10 8 6 6 12 13 11 10 10 11 9 7 8 8 6 5 5 7 10 11 10 8 9 10 10 10 9 8 9 8 8 8 9 10 10 10 10 10 10 9 8 8 7 7 7 7 7 6 6 6 6 6 6
18 11 3 -3 -8 9 14 1 11 16 2 -3 -1 -2 -1 6 9 4 -1 -6 -4 1 2 2 2 3 4 4 -2 -10 0 11 11 12 8 6 8 9 9 9 10 11 7 5 5 6 7 10 10 1 -2 5 13 14 8 8 10 9 8 8 7 6 7 9 9 9 9 10 10 10 10 9 8 7 7 8 8 9 10 11 11 11 11 10 10 10 10 9 8 8 7 7 7 7 7 7 6
15 18 11 1 -7 -0 11 5 2 3 -5 -5 1 -2 10 27 19 8 4 -4 -1 5 4 3 3 1 1 2 3 1 -1 6 13 12 10 11 8 9 9 6 6 6 4 2 4 6 6 8 5 -2 -3 4 12 12 7 8 9 7 7 7 7 7 9 10 11 10 9 10 11 10 10 10 9 7 6 6 7 9 9 10 11 11 11 11 12 11 10 10 9 9 9 8 8 7 7 8 8
12 18 12 3 1 -2 3 3 -7 -6 -5 -6 1 1 10 24 11 1 6 2 1 4 0 -0 -0 -1 -0 -2 2 5 -0 5 15 11 10 12 8 8 9 8 8 5 4 4 4 4 5 7 7 4 3 2 6 9 8 9 9 8 6 4 5 7 9 10 10 11 11 10 10 11 11 10 10 10 8 6 6 7 8 9 10 10 11 11 12 12 11 11 10 10 10 10 9 8 8 7 8
12 16 13 1 4 6 2 3 -4 -10 -8 -4 4 0 -1 9 3 -5 1 2 1 -1 -6 -6 -3 -0 3 2 5 9 8 13 19 14 10 9 9 11 12 11 10 7 6 6 6 9 9 9 7 5 4 2 4 8 9 8 9 9 5 3 4 5 9 10 10 10 10 10 10 10 11 11 11 11 10 9 8 8 8 9 9 8 9 10 10 10 10 10 9 9 8 8 9 8 9 8 8
13 13 20 5 -1 9 9 5 1 -5 -7 -3 4 4 2 6 6 1 0 3 3 -1 -3 -0 5 6 6 8 12 19 24 19 13 11 11 11 11 14 14 13 11 8 7 6 9 13 12 10 9 7 4 3 6 8 9 10 9 8 4 2 3 5 7 8 9 11 10 10 10 10 11 11 11 11 11 11 10 10 9 8 8 8 8 9 9 9 9 10 9 9 8 7 8 8 8 9 8
15 13 23 15 -3 -1 7 6 2 -1 -1 1 -1 1 8 14 18 16 4 0 4 4 3 4 6 4 4 10 12 14 19 12 4 5 7 10 13 15 15 14 11 7 7 10 12 12 10 8 8 6 4 5 5 3 5 6 5 7 5 1 3 5 6 7 7 9 9 8 7 8 10 10 11 11 10 11 11 11 11 10 9 8 8 9 9 10 10 10 10 10 9 8 8 8 8 9 8
13 12 16 20 7 -6 -7 -2 1 -0 3 6 -0 -2 7 9 18 29 15 -0 -1 0 -0 -1 1 3 4 9 7 4 7 4 5 11 13 14 16 15 13 14 15 14 14 13 8 6 6 6 6 8 7 6 4 4 5 -0 -4 2 5 3 3 3 4 6 6 6 7 7 7 7 9 10 11 11 11 10 11 12 13 12 11 9 9 9 9 10 10 11 12 12 11 10 10 9 9 9 8
14 14 11 13 17 9 -3 -4 0 1 1 3 -2 -2 4 1 8 27 22 10 9 9 6 2 2 6 7 7 2 5 9 3 2 10 13 10 6 5 7 10 14 13 11 10 7 7 8 8 10 9 6 4 3 5 5 2 -2 1 4 4 4 3 3 3 3 6 8 8 7 8 9 10 11 10 10 9 10 11 12 13 13 11 10 10 10 10 9 9 10 11 12 11 11 11 11 11 10
15 14 11 7 12 17 12 5 2 1 1 -1 -3 -2 3 5 11 19 14 8 11 12 10 4 3 6 6 1 -2 4 6 3 6 8 6 7 6 6 9 9 6 3 5 9 10 11 9 7 7 6 4 2 2 2 1 4 7 7 8 8 5 4 3 1 1 5 10 10 8 8 9 11 12 11 10 9 9 9 10 11 12 12 12 12 11 11 11 10 10 10 11 11 10 11 11 11 10
16 10 12 14 14 15 15 14 13 13 12 8 6 5 8 12 15 16 12 10 12 11 7 6 8 10 6 1 2 3 1 8 18 13 9 12 8 3 5 4 2 4 8 8 9 10 8 4 3 2 4 4 6 3 -2 4 12 10 8 8 6 7 6 2 2 4 9 12 9 8 8 8 10 10 8 9 9 8 9 9 10 12 12 13 12 13 13 12 11 10 10 11 11 11 12 11 11
12 9 14 19 19 15 11 13 15 17 19 18 16 14 12 12 11 10 9 11 14 12 7 6 7 6 5 7 8 6 3 12 17 7 4 8 3 -0 2 2 5 9 9 9 9 7 4 6 8 7 7 7 7 4 -2 3 13 9 6 10 8 7 8 4 2 5 9 12 11 8 7 6 6 8 7 7 7 7 9 8 8 10 10 11 12 12 14 13 13 12 10 10 11 10 11 11 11
5 11 16 13 12 13 11 12 14 13 14 16 16 12 10 11 10 9 9 9 9 8 6 6 6 6 8 9 8 7 8 11 10 3 3 5 2 2 3 3 5 5 4 5 4 1 4 14 19 15 12 9 6 5 3 14 28 11 -7 6 14 5 7 8 4 6 9 11 11 8 8 7 6 7 7 6 6 6 7 8 7 8 8 9 10 9 11 12 13 14 13 12 11 11 11 11 10
4 3 3 0 2 8 10 12 13 12 12 11 10 9 9 8 7 7 9 9 7 8 9 6 5 8 7 5 8 13 11 7 7 6 4 4 4 6 8 7 5 3 4 5 2 2 7 15 19 15 16 17 7 -7 -16 6 43 27 -18 -13 9 6 10 14 5 7 13 12 10 8 9 10 9 9 7 5 6 6 6 7 7 7 7 7 8 9 8 9 10 11 12 13 13 12 11 12 11
11 4 -0 2 9 11 9 11 10 9 11 10 8 9 10 10 11 12 13 14 13 13 13 7 4 5 3 7 14 16 9 4 6 7 4 4 4 5 5 4 2 2 4 5 6 7 7 11 18 18 19 23 12 -5 -13 -5 17 24 -1 -13 -1 4 10 12 5 10 17 11 8 8 6 8 10 11 10 6 6 5 5 6 6 7 8 7 7 8 8 8 8 7 9 10 11 12 12 12 13
14 13 9 6 11 12 8 12 16 14 13 15 16 13 11 9 10 12 16 20 21 19 18 16 19 20 17 18 16 8 4 3 5 5 3 3 4 3 3 5 8 8 7 7 8 10 7 1 7 14 14 16 11 5 18 18 5 20 31 10 3 12 10 2 4 16 20 10 6 8 7 8 8 9 11 11 9 9 8 8 8 7 7 8 8 8 8 8 8 8 7 7 8 9 10 10 11
6 10 15 8 7 8 2 2 8 11 11 16 19 16 13 12 10 9 12 16 15 12 12 14 19 21 20 22 15 4 1 3 3 3 3 6 7 5 7 11 13 14 13 13 13 13 9 -0 3 13 13 13 10 1 15 28 16 24 34 10 -1 14 12 4 8 17 22 11 1 3 6 6 7 8 10 12 11 12 13 12 12 11 8 7 7 7 8 7 8 8 7 7 7 6 7 9 9
3 -1 5 3 1 2 3 3 5 9 10 10 13 12 10 11 12 10 9 8 6 4 5 9 9 7 7 10 8 4 5 6 5 5 7 10 11 10 13 14 12 13 12 11 11 9 7 4 5 12 14 14 14 6 6 11 3 5 15 10 6 9 10 15 16 13 18 15 4 3 6 6 7 8 8 9 8 7 9 11 12 12 11 10 8 8 8 8 8 9 8 8 7 6 6 6 6
6 3 3 3 1 -3 -1 3 3 8 12 10 12 13 9 8 8 9 7 5 6 6 5 4 5 8 11 11 11 12 11 12 14 14 11 11 12 12 12 10 6 7 7 6 8 7 6 7 5 6 10 9 11 13 11 8 5 5 11 16 15 8 5 12 17 16 15 13 6 3 5 4 4 6 5 6 8 6 6 7 8 10 10 10 10 8 7 8 9 10 10 10 9 9 8 7 6
-1 1 8 12 11 4 3 4 1 2 4 2 4 7 7 7 6 7 7 8 10 9 8 8 7 9 10 10 12 8 3 5 10 13 13 12 11 8 4 4 4 5 6 7 9 9 8 9 8 5 3 2 5 8 9 11 14 13 10 6 3 5 7 7 17 23 16 13 14 10 8 6 3 5 5 3 5 5 4 5 7 8 8 8 9 8 7 7 6 7 9 10 11 11 10 10 9
-4 1 10 14 13 8 6 6 3 4 4 3 4 4 3 4 4 5 5 6 8 6 6 10 10 6 -1 2 10 8 7 15 14 13 15 8 2 1 1 4 8 7 7 7 6 7 7 5 5 3 1 4 7 6 12 18 15 11 12 10 4 6 8 6 12 17 12 11 11 -0 -2 5 3 2 3 3 4 4 5 6 4 4 6 8 9 8 6 4 4 4 5 6 7 7 9 11 11
Height
5839 5840 5840 5841 5842 5842 5842 5843 5843 5844 5845 5846 5849 5850 5849 5850 5849 5848 5847 5844 5846 5849 5848 5848 5848 5848 5850 5852 5854 5855 5856 5856 5856 5856 5856 5855 5855 5854 5853 5851 5850 5850 5849 5849 5849 5849 5849 5849 5850 5850 5851 5852 5853 5853 5854 5854 5854 5853 5853 5852 5851 5851 5850 5849 5848 5847 5847 5847 5847 5847 5847 5847 5847 5847 5847 5846 5845 5844 5844 5844 5843 5843 5843 5843 5844 5844 5844 5844 5845 5845 5845 5845 5845 5845 5845 5845 5846
5836 5837 5838 5838 5839 5840 5840 5840 5840 5841 5842 5844 5847 5847 5845 5847 5846 5845 5843 5841 5845 5847 5847 5846 5846 5847 5848 5850 5851 5852 5854 5856 5856 5855 5855 5854 5853 5852 5850 5848 5847 5846 5846 5846 5846 5847 5848 5848 5849 5850 5850 5851 5852 5852 5852 5852 5852 5852 5852 5851 5851 5850 5849 5848 5847 5846 5845 5845 5845 5845 5845 5845 5845 5845 5845 5844 5844 5843 5842 5842 5842 5842 5842 5842 5842 5843 5843 5843 5844 5844 5844 5845 5844 5844 5844 5845 5845
5834 5834 5835 5835 5836 5837 5837 5837 5838 5838 5840 5843 5844 5843 5843 5843 5842 5842 5840 5840 5843 5845 5845 5845 5844 5845 5846 5848 5849 5850 5853 5854 5855 5855 5854 5853 5851 5849 5847 5846 5844 5844 5843 5844 5844 5845 5846 5847 5848 5849 5850 5850 5851 5851 5851 5851 5851 5851 5851 5850 5850 5849 5848 5846 5845 5844 5844 5844 5844 5843 5843 5843 5843 5843 5843 5843 5842 5841 5841 5841 5841 5841 5841 5841 5841 5841 5842 5842 5842 5843 5844 5844 5844 5844 5844 5844 5845
5831 5831 5832 5833 5833 5834 5834 5834 5835 5836 5838 5841 5841 5839 5839 5839 5840 5841 5839 5839 5840 5842 5843 5843 5843 5844 5845 5846 5847 5849 5852 5853 5853 5853 5852 5851 5848 5846 5844 5843 5842 5842 5841 5841 5842 5842 5844 5845 5846 5848 5849 5849 5849 5849 5849 5849 5849 5849 5849 5849 5848 5847 5846 5845 5844 5843 5843 5842 5842 5842 5841 5841 5841 5841 5841 5841 5840 5840 5840 5840 5840 5840 5840 5840 5840 5840 5840 5841 5841 5842 5843 5843 5843 5843 5843 5844 5844
5828 5828 5829 5829 5830 5831 5831 5832 5832 5834 5837 5838 5837 5836 5837 5837 5837 5838 5838 5838 5837 5839 5840 5840 5841 5841 5843 5844 5844 5847 5850 5851 5850 5850 5849 5847 5846 5844 5842 5841 5841 5841 5838 5836 5838 5839 5841 5842 5844 5845 5846 5847 5847 5847 5848 5848 5848 5847 5847 5847 5847 5846 5845 5844 5842 5842 5841 5841 5841 5840 5840 5839 5839 5839 5839 5839 5839 5839 5838 5838 5838 5838 5838 5838 5838 5838 5839 5839 5840 5841 5841 5842 5842 5842 5843 5843 5843
5824 5825 5825 5826 5827 5828 5828 5829 5829 5832 5834 5834 5834 5835 5835 5835 5834 5835 5836 5836 5835 5837 5838 5838 5839 5839 5839 5840 5840 5844 5848 5847 5846 5846 5846 5845 5844 5843 5841 5841 5841 5841 5836 5830 5831 5835 5836 5838 5840 5841 5842 5843 5845 5845 5846 5846 5846 5846 5845 5845 5845 5844 5843 5842 5841 5840 5839 5839 5839 5839 5838 5838 5837 5837 5837 5837 5837 5837 5837 5837 5837 5837 5837 5837 5837 5837 5837 5837 5838 5839 5840 5840 5840 5841 5841 5842 5842
5822 5822 5823 5823 5824 5825 5825 5826 5827 5830 5832 5832 5832 5833 5833 5834 5833 5831 5831 5831 5832 5834 5834 5835 5836 5836 5836 5836 5837 5839 5842 5843 5842 5843 5842 5841 5840 5839 5838 5838 5837 5839 5838 5829 5826 5829 5831 5834 5836 5837 5838 5840 5842 5843 5844 5844 5844 5844 5844 5844 5843 5843 5842 5841 5840 5839 5838 5837 5837 5837 5836 5836 5836 5835 5835 5835 5835 5835 5835 5835 5835 5835 5835 5835 5835 5836 5836 5836 5837 5838 5838 5839 5839 5839 5840 5841 5841
5819 5819 5820 5821 5821 5822 5822 5823 5825 5828 5830 5831 5831 5831 5831 5832 5830 5828 5827 5827 5829 5830 5831 5831 5832 5833 5833 5832 5834 5835 5836 5838 5839 5839 5838 5837 5836 5835 5835 5834 5834 5836 5837 5831 5825 5826 5827 5829 5832 5833 5835 5837 5839 5841 5842 5842 5842 5842 5842 5842 5842 5841 5840 5839 5838 5838 5837 5836 5835 5835 5834 5834 5834 5834 5833 5833 5833 5833 5833 5833 5834 5834 5834 5834 5834 5834 5834 5834 5835 5836 5836 5837 5837 5837 5838 5839 5840
5816 5816 5817 5818 5818 5819 5820 5821 5823 5825 5827 5828 5828 5829 5829 5828 5826 5826 5826 5825 5826 5828 5829 5829 5829 5830 5830 5829 5831 5831 5832 5833 5834 5835 5834 5834 5833 5832 5832 5831 5832 5833 5831 5828 5824 5823 5823 5826 5829 5830 5832 5834 5836 5839 5840 5840 5840 5840 5840 5840 5840 5839 5838 5837 5836 5836 5835 5835 5834 5833 5832 5832 5832 5832 5831 5831 5831 5832 5832 5832 5832 5832 5832 5832 5832 5832 5832 5833 5833 5834 5835 5835 5836 5836 5836 5838 5839
5813 5813 5814 5815 5816 5816 5817 5818 5820 5821 5823 5823 5824 5825 5825 5823 5823 5823 5823 5822 5823 5825 5825 5826 5826 5827 5827 5827 5828 5828 5828 5829 5830 5831 5831 5832 5830 5829 5828 5828 5829 5829 5826 5823 5821 5819 5820 5824 5827 5828 5830 5832 5834 5837 5838 5838 5838 5838 5839 5839 5838 5837 5836 5835 5834 5834 5834 5833 5832 5831 5831 5830 5830 5830 5830 5830 5830 5830 5830 5830 5830 5830 5830 5830 5830 5831 5831 5831 5832 5832 5833 5834 5834 5834 5835 5836 5837
5810 5811 5812 5812 5813 5813 5814 5815 5816 5818 5819 5819 5821 5822 5821 5820 5820 5821 5821 5820 5821 5822 5822 5822 5823 5824 5825 5826 5826 5826 5826 5826 5827 5827 5828 5829 5828 5827 5826 5826 5825 5825 5823 5819 5818 5818 5820 5823 5825 5826 5828 5830 5833 5835 5836 5836 5836 5836 5837 5837 5836 5835 5833 5833 5832 5832 5832 5831 5830 5829 5829 5829 5828 5828 5828 5828 5829 5829 5828 5828 5828 5828 5828 5828 5829 5829 5829 5830 5830 5830 5831 5832 5832 5833 5833 5834 5835
5807 5808 5809 5809 5810 5810 5811 5813 5814 5815 5816 5817 5818 5819 5819 5819 5819 5819 5818 5818 5819 5821 5821 5820 5821 5821 5822 5823 5823 5823 5822 5822 5823 5824 5825 5826 5825 5824 5823 5823 5822 5822 5820 5819 5820 5821 5821 5822 5824 5826 5827 5829 5831 5833 5834 5835 5835 5835 5835 5834 5834 5832 5831 5830 5830 5830 5829 5828 5827 5827 5827 5827 5826 5826 5826 5827 5827 5827 5827 5826 5826 5826 5826 5826 5827 5827 5827 5828 5828 5828 5829 5830 5831 5831 5831 5832 5834
5805 5806 5806 5806 5807 5808 5809 5811 5812 5814 5815 5816 5816 5815 5817 5818 5817 5816 5816 5816 5817 5819 5819 5819 5819 5819 5819 5820 5820 5820 5819 5817 5818 5821 5822 5822 5821 5821 5820 5820 5820 5819 5819 5820 5821 5821 5821 5822 5823 5825 5826 5827 5829 5831 5832 5833 5833 5833 5833 5832 5831 5829 5828 5828 5828 5827 5826 5826 5825 5825 5825 5825 5824 5825 5825 5825 5825 5825 5825 5825 5824 5824 5824 5824 5825 5825 5826 5826 5826 5827 5827 5828 5829 5829 5830 5831 5832
5802 5803 5804 5804 5805 5806 5807 5809 5811 5812 5813 5814 5813 5813 5813 5814 5814 5814 5813 5814 5814 5815 5815 5815 5816 5817 5817 5819 5819 5818 5816 5815 5816 5818 5818 5818 5817 5817 5818 5817 5817 5817 5818 5819 5819 5819 5819 5820 5821 5822 5824 5825 5827 5829 5830 5830 5831 5830 5830 5829 5827 5826 5826 5825 5825 5824 5824 5823 5823 5823 5823 5822 5822 5823 5823 5823 5823 5823 5823 5823 5822 5822 5822 5822 5822 5823 5824 5824 5825 5825 5825 5826 5827 5827 5828 5828 5829
5799 5800 5801 5802 5803 5804 5806 5807 5809 5810 5811 5812 5811 5811 5810 5810 5810 5810 5810 5811 5812 5812 5813 5812 5812 5814 5815 5816 5817 5815 5814 5814 5815 5816 5816 5815 5815 5815 5815 5815 5815 5816 5817 5817 5816 5816 5817 5817 5818 5820 5822 5824 5825 5827 5827 5828 5828 5828 5827 5826 5824 5824 5824 5823 5822 5822 5821 5821 5821 5820 5820 5820 5820 5820 5820 5820 5820 5821 5821 5820 5820 5820 5820 5820 5820 5820 5821 5822 5823 5823 5824 5824 5825 5825 5826 5826 5827
5797 5798 5799 5800 5801 5802 5803 5805 5807 5807 5809 5809 5808 5808 5807 5807 5807 5807 5807 5809 5810 5810 5810 5811 5811 5811 5812 5813 5813 5813 5812 5813 5813 5813 5813 5813 5813 5813 5813 5813 5813 5815 5816 5815 5814 5814 5815 5815 5816 5818 5820 5822 5823 5824 5825 5825 5825 5825 5824 5822 5821 5821 5821 5820 5820 5819 5819 5818 5818 5818 5818 5818 5818 5818 5818 5818 5818 5818 5818 5818 5818 5818 5817 5817 5817 5818 5819 5820 5821 5821 5822 5822 5823 5823 5824 5824 5825
5794 5795 5797 5798 5799 5800 5801 5802 5803 5804 5804 5803 5802 5803 5804 5804 5804 5803 5803 5805 5808 5808 5808 5810 5810 5810 5810 5810 5810 5810 5810 5811 5811 5810 5810 5810 5810 5810 5811 5812 5812 5813 5813 5814 5813 5812 5812 5813 5814 5816 5818 5820 5821 5821 5822 5822 5822 5822 5821 5819 5818 5818 5818 5817 5817 5817 5816 5816 5816 5816 5816 5815 5815 5816 5816 5816 5816 5816 5816 5816 5816 5815 5815 5815 5815 5816 5817 5818 5819 5820 5820 5820 5821 5821 5822 5822 5822
5792 5793 5794 5796 5797 5798 5798 5799 5799 5800 5800 5799 5798 5798 5800 5802 5802 5801 5800 5802 5805 5806 5807 5808 5809 5809 5808 5808 5807 5806 5807 5808 5808 5807 5808 5808 5808 5808 5809 5810 5810 5811 5811 5810 5811 5810 5811 5812 5813 5815 5816 5817 5818 5818 5819 5819 5820 5819 5818 5816 5815 5815 5816 5815 5814 5814 5814 5813 5813 5813 5813 5813 5813 5813 5814 5814 5814 5813 5813 5813 5813 5813 5813 5813 5813 5814 5815 5816 5817 5818 5819 5819 5819 5819 5820 5820 5820
5790 5791 5793 5795 5795 5795 5795 5795 5795 5794 5795 5796 5796 5796 5797 5799 5800 5800 5799 5800 5802 5804 5806 5806 5806 5805 5805 5805 5804 5804 5805 5805 5805 5805 5805 5806 5806 5807 5807 5808 5808 5809 5809 5809 5809 5809 5810 5811 5812 5813 5814 5814 5815 5816 5816 5817 5817 5816 5815 5814 5813 5812 5813 5813 5812 5811 5811 5810 5810 5811 5811 5811 5811 5811 5811 5811 5811 5811 5810 5810 5810 5810 5811 5811 5812 5813 5814 5815 5816 5816 5817 5817 5817 5818 5818 5818 5819
5788 5789 5791 5793 5792 5792 5793 5793 5792 5791 5791 5792 5793 5794 5796 5797 5798 5799 5798 5798 5801 5803 5803 5803 5802 5802 5802 5802 5802 5803 5803 5803 5803 5803 5803 5804 5804 5805 5806 5806 5806 5807 5805 5805 5806 5808 5809 5809 5810 5810 5811 5812 5813 5813 5814 5814 5814 5813 5812 5811 5810 5810 5810 5810 5809 5809 5809 5808 5808 5808 5809 5809 5809 5809 5809 5809 5809 5808 5808 5807 5807 5808 5808 5809 5810 5811 5812 5813 5814 5814 5815 5815 5815 5815 5816 5816 5817
5786 5787 5789 5790 5789 5790 5790 5790 5790 5789 5789 5790 5791 5792 5794 5795 5796 5797 5797 5796 5798 5800 5800 5800 5800 5799 5799 5800 5800 5801 5801 5801 5800 5800 5801 5802 5802 5802 5803 5804 5804 5804 5802 5800 5801 5803 5805 5806 5806 5807 5809 5810 5810 5811 5811 5811 5811 5810 5810 5809 5808 5807 5807 5807 5807 5806 5806 5806 5806 5806 5806 5806 5806 5807 5807 5807 5806 5805 5805 5804 5804 5805 5806 5808 5809 5809 5810 5810 5811 5811 5811 5811 5812 5813 5813 5814 5814
5783 5785 5787 5787 5787 5788 5788 5788 5788 5788 5788 5788 5790 5791 5792 5793 5794 5795 5796 5795 5796 5797 5796 5797 5797 5797 5797 5798 5798 5799 5799 5798 5798 5798 5799 5799 5799 5799 5800 5800 5801 5803 5802 5801 5800 5799 5799 5801 5803 5805 5807 5807 5808 5808 5808 5809 5809 5808 5808 5807 5806 5806 5805 5805 5805 5804 5804 5804 5804 5804 5804 5804 5804 5804 5804 5804 5803 5802 5802 5802 5802 5803 5804 5806 5806 5806 5806 5806 5807 5808 5808 5809 5810 5811 5811 5811 5812
5781 5783 5784 5785 5785 5786 5786 5786 5787 5786 5786 5788 5791 5792 5791 5791 5791 5792 5793 5793 5793 5793 5794 5795 5795 5795 5795 5795 5796 5796 5795 5794 5795 5796 5796 5797 5797 5797 5797 5797 5798 5801 5802 5802 5801 5794 5793 5796 5799 5801 5804 5805 5805 5805 5806 5806 5806 5806 5805 5805 5804 5804 5803 5803 5802 5802 5802 5802 5802 5802 5801 5801 5801 5801 5801 5801 5801 5800 5799 5799 5800 5801 5803 5804 5804 5804 5804 5804 5805 5806 5807 5808 5809 5809 5810 5809 5809
5778 5780 5782 5782 5783 5784 5784 5784 5785 5785 5786 5788 5790 5791 5790 5789 5788 5788 5790 5790 5789 5790 5792 5792 5793 5792 5792 5793 5793 5792 5791 5792 5793 5794 5793 5794 5795 5795 5795 5795 5796 5797 5798 5800 5797 5789 5787 5791 5794 5798 5800 5802 5802 5803 5803 5804 5804 5803 5803 5803 5802 5802 5801 5801 5800 5800 5799 5799 5799 5799 5799 5799 5798 5798 5798 5798 5799 5799 5798 5798 5799 5800 5801 5801 5802 5802 5802 5803 5804 5804 5805 5806 5807 5807 5808 5808 5808
5776 5778 5779 5780 5780 5781 5782 5782 5782 5783 5784 5786 5788 5788 5788 5787 5786 5786 5787 5787 5787 5788 5789 5791 5791 5790 5790 5790 5790 5790 5789 5790 5791 5790 5789 5789 5791 5793 5792 5793 5794 5795 5796 5797 5793 5787 5787 5790 5792 5795 5798 5799 5800 5800 5801 5802 5802 5801 5801 5800 5800 5800 5800 5799 5798 5797 5797 5797 5797 5797 5797 5797 5796 5796 5796 5796 5797 5798 5798 5798 5799 5800 5799 5799 5799 5800 5801 5801 5802 5802 5803 5804 5804 5805 5806 5807 5807
5774 5776 5776 5777 5778 5779 5780 5780 5781 5781 5782 5783 5785 5786 5786 5786 5785 5784 5783 5784 5786 5787 5787 5789 5789 5789 5788 5788 5787 5787 5787 5788 5787 5787 5788 5786 5787 5790 5790 5791 5793 5793 5794 5794 5791 5788 5788 5790 5792 5794 5796 5797 5798 5798 5799 5800 5800 5799 5799 5798 5798 5798 5798 5797 5796 5795 5795 5795 5795 5795 5794 5794 5794 5794 5794 5795 5796 5796 5796 5797 5798 5799 5799 5798 5798 5799 5800 5800 5800 5801 5801 5802 5803 5804 5805 5805 5805
5772 5773 5774 5775 5776 5777 5778 5778 5779 5779 5779 5781 5783 5783 5784 5784 5783 5782 5781 5782 5784 5785 5786 5787 5787 5787 5786 5785 5785 5784 5785 5786 5785 5786 5787 5785 5784 5787 5788 5789 5790 5791 5792 5791 5790 5789 5788 5789 5791 5792 5794 5795 5796 5796 5797 5797 5798 5797 5797 5796 5796 5796 5795 5795 5794 5794 5793 5793 5793 5793 5793 5792 5793 5793 5794 5794 5794 5793 5793 5794 5795 5796 5797 5797 5797 5798 5798 5799 5799 5799 5800 5801 5801 5802 5803 5803 5804
5770 5771 5772 5773 5774 5775 5776 5776 5776 5776 5778 5779 5779 5780 5781 5781 5781 5780 5780 5781 5782 5782 5784 5785 5785 5784 5784 5783 5782 5782 5783 5784 5785 5785 5785 5784 5784 5785 5786 5787 5788 5789 5791 5790 5789 5789 5788 5787 5790 5791 5793 5794 5794 5794 5795 5795 5795 5795 5794 5794 5794 5794 5793 5793 5792 5792 5792 5791 5791 5791 5791 5791 5791 5792 5792 5792 5792 5792 5793 5793 5794 5794 5795 5796 5797 5797 5797 5798 5798 5798 5798 5799 5800 5800 5801 5801 5802
5768 5768 5769 5771 5772 5773 5773 5773 5773 5774 5776 5777 5776 5777 5779 5779 5778 5778 5779 5779 5780 5780 5781 5782 5782 5782 5781 5781 5780 5780 5780 5781 5783 5783 5783 5782 5782 5783 5784 5785 5786 5787 5789 5788 5788 5788 5787 5787 5788 5790 5791 5792 5793 5793 5793 5793 5793 5792 5792 5791 5791 5791 5791 5791 5790 5790 5790 5789 5790 5790 5790 5790 5790 5790 5790 5791 5791 5791 5792 5793 5793 5793 5794 5795 5796 5796 5796 5797 5797 5797 5797 5797 5798 5799 5799 5799 5799
5766 5766 5766 5768 5769 5770 5769 5770 5771 5773 5773 5773 5772 5774 5776 5776 5775 5775 5776 5777 5777 5777 5778 5779 5779 5779 5779 5779 5778 5778 5778 5779 5780 5780 5780 5780 5781 5781 5782 5783 5784 5786 5787 5787 5787 5786 5785 5786 5788 5789 5790 5791 5791 5791 5791 5791 5790 5790 5789 5789 5789 5789 5789 5788 5788 5788 5788 5787 5788 5788 5788 5788 5788 5788 5789 5789 5789 5790 5791 5791 5792 5792 5793 5794 5794 5794 5795 5795 5795 5796 5796 5796 5796 5797 5797 5797 5797
5763 5763 5764 5765 5765 5766 5767 5768 5770 5770 5769 5769 5770 5772 5773 5772 5772 5772 5773 5773 5774 5774 5775 5776 5776 5777 5777 5777 5777 5776 5776 5777 5778 5778 5778 5778 5778 5779 5780 5781 5783 5784 5784 5785 5786 5784 5783 5785 5787 5788 5789 5790 5790 5789 5789 5788 5788 5788 5788 5787 5787 5787 5787 5786 5786 5786 5786 5786 5786 5787 5787 5787 5786 5786 5787 5787 5788 5788 5789 5790 5790 5791 5791 5792 5793 5793 5793 5793 5794 5794 5794 5794 5794 5795 5796 5796 5796
5761 5761 5762 5762 5762 5763 5764 5765 5766 5767 5766 5766 5768 5769 5769 5769 5769 5769 5769 5771 5771 5772 5773 5774 5774 5775 5776 5776 5776 5775 5775 5776 5776 5776 5776 5776 5777 5777 5778 5780 5782 5782 5783 5784 5783 5781 5782 5785 5786 5787 5788 5788 5788 5788 5788 5787 5787 5786 5785 5785 5785 5785 5785 5785 5784 5784 5784 5785 5785 5785 5785 5785 5785 5784 5785 5785 5786 5787 5787 5788 5788 5789 5789 5790 5791 5791 5791 5791 5792 5792 5793 5792 5792 5793 5794 5794 5794
5758 5759 5760 5760 5760 5760 5761 5763 5763 5764 5764 5764 5766 5766 5767 5766 5765 5765 5766 5768 5769 5770 5771 5771 5772 5774 5774 5775 5775 5775 5775 5774 5774 5774 5774 5775 5775 5776 5776 5778 5780 5780 5782 5784 5782 5779 5781 5784 5785 5786 5786 5786 5786 5786 5786 5785 5785 5784 5783 5783 5783 5783 5783 5783 5783 5782 5783 5783 5783 5783 5784 5784 5783 5783 5783 5783 5784 5785 5786 5786 5787 5787 5788 5788 5789 5789 5789 5790 5790 5790 5791 5791 5790 5791 5792 5792 5792
5756 5757 5757 5758 5758 5759 5760 5761 5762 5762 5762 5763 5763 5763 5764 5763 5762 5761 5763 5765 5767 5768 5769 5770 5771 5772 5773 5774 5774 5774 5774 5773 5773 5773 5773 5773 5773 5773 5774 5775 5777 5779 5781 5782 5781 5779 5780 5782 5783 5784 5785 5785 5785 5785 5784 5784 5783 5782 5781 5781 5781 5781 5781 5781 5781 5781 5781 5781 5781 5782 5782 5782 5781 5781 5781 5782 5782 5783 5784 5785 5785 5786 5786 5786 5787 5788 5788 5788 5789 5789 5789 5789 5789 5789 5789 5789 5790
5754 5755 5755 5756 5757 5758 5759 5759 5759 5760 5760 5761 5761 5761 5761 5761 5761 5760 5761 5764 5765 5767 5768 5769 5770 5770 5771 5772 5772 5772 5772 5771 5771 5771 5771 5772 5772 5771 5772 5773 5774 5777 5778 5779 5779 5779 5778 5780 5781 5782 5784 5783 5783 5783 5783 5782 5782 5781 5780 5779 5779 5779 5779 5779 5779 5779 5779 5778 5779 5780 5780 5780 5779 5779 5779 5780 5780 5781 5782 5782 5783 5784 5784 5785 5785 5786 5786 5786 5787 5787 5787 5787 5787 5787 5787 5787 5787
5752 5753 5753 5754 5755 5756 5757 5757 5756 5757 5758 5759 5760 5760 5760 5761 5760 5760 5761 5762 5764 5766 5768 5769 5769 5768 5768 5770 5770 5770 5770 5769 5769 5769 5769 5769 5770 5770 5770 5771 5772 5773 5775 5776 5776 5776 5776 5777 5778 5780 5781 5782 5782 5782 5782 5781 5781 5780 5779 5778 5777 5777 5777 5777 5777 5776 5777 5777 5777 5777 5778 5778 5778 5777 5777 5777 5777 5778 5779 5780 5780 5781 5782 5782 5783 5783 5784 5784 5784 5784 5784 5785 5784 5784 5785 5785 5785
5751 5751 5751 5751 5752 5754 5755 5755 5754 5755 5756 5757 5759 5760 5760 5760 5759 5759 5759 5760 5763 5765 5766 5767 5766 5765 5766 5768 5768 5767 5767 5768 5768 5768 5768 5768 5768 5769 5769 5770 5771 5772 5773 5774 5774 5773 5774 5774 5776 5777 5778 5780 5780 5780 5779 5779 5779 5779 5777 5776 5776 5775 5775 5775 5775 5774 5774 5775 5775 5775 5775 5776 5776 5776 5776 5775 5775 5775 5776 5777 5778 5779 5779 5780 5781 5781 5781 5781 5782 5781 5781 5782 5782 5782 5782 5783 5783
5749 5749 5749 5749 5751 5752 5752 5753 5753 5754 5754 5756 5758 5760 5761 5760 5759 5758 5758 5759 5761 5763 5763 5764 5764 5763 5765 5767 5766 5766 5766 5766 5767 5767 5766 5766 5767 5768 5769 5769 5770 5770 5771 5772 5772 5772 5772 5773 5773 5774 5776 5777 5777 5777 5777 5776 5776 5775 5774 5774 5773 5773 5773 5773 5773 5773 5772 5772 5773 5773 5773 5773 5774 5774 5774 5774 5774 5774 5774 5775 5776 5776 5777 5777 5778 5778 5779 5778 5779 5779 5778 5779 5779 5779 5779 5780 5781
5746 5747 5748 5748 5749 5750 5750 5751 5752 5752 5753 5755 5756 5759 5761 5761 5759 5757 5757 5759 5760 5761 5761 5761 5761 5762 5763 5764 5764 5765 5765 5765 5766 5766 5766 5766 5766 5767 5768 5767 5767 5769 5770 5771 5771 5771 5771 5771 5772 5772 5773 5774 5775 5775 5774 5774 5773 5772 5771 5770 5770 5770 5770 5771 5771 5771 5771 5770 5770 5770 5771 5771 5771 5772 5772 5772 5772 5772 5772 5772 5773 5774 5774 5774 5775 5775 5776 5775 5775 5775 5776 5776 5776 5777 5777 5778 5778
5744 5745 5746 5746 5747 5748 5749 5749 5749 5749 5751 5753 5754 5756 5758 5759 5758 5757 5757 5757 5758 5758 5759 5759 5759 5760 5760 5760 5761 5762 5763 5764 5764 5765 5765 5765 5765 5765 5766 5765 5765 5767 5768 5769 5770 5770 5770 5770 5770 5770 5771 5772 5773 5772 5772 5772 5771 5770 5769 5768 5768 5768 5767 5768 5768 5768 5768 5768 5768 5768 5768 5769 5769 5770 5770 5769 5769 5770 5770 5770 5770 5771 5771 5772 5772 5772 5772 5772 5772 5773 5773 5773 5774 5774 5775 5775 5776
5742 5743 5744 5745 5745 5746 5747 5747 5746 5747 5748 5750 5751 5753 5756 5757 5757 5756 5755 5755 5755 5756 5756 5757 5758 5758 5758 5758 5758 5759 5759 5761 5762 5762 5762 5762 5763 5763 5763 5763 5764 5765 5767 5768 5768 5768 5768 5768 5768 5768 5769 5770 5770 5771 5771 5770 5770 5769 5768 5767 5767 5766 5765 5765 5765 5765 5766 5766 5765 5765 5766 5766 5766 5767 5767 5767 5767 5767 5767 5768 5768 5768 5768 5769 5769 5769 5769 5769 5770 5770 5770 5770 5771 5771 5772 5772 5773
5740 5741 5743 5743 5743 5743 5744 5744 5744 5745 5746 5747 5749 5750 5753 5755 5756 5756 5754 5753 5753 5753 5754 5756 5756 5756 5756 5756 5757 5757 5757 5758 5759 5760 5760 5760 5761 5761 5761 5762 5763 5764 5765 5766 5766 5766 5766 5766 5766 5766 5767 5768 5768 5768 5769 5769 5768 5768 5767 5766 5766 5765 5763 5762 5762 5763 5763 5763 5764 5763 5763 5764 5764 5764 5764 5765 5764 5764 5765 5765 5765 5765 5765 5766 5766 5766 5766 5767 5767 5767 5767 5767 5768 5768 5769 5769 5769
5737 5739 5741 5741 5741 5741 5741 5742 5743 5743 5744 5745 5746 5748 5751 5753 5754 5754 5753 5751 5750 5751 5752 5753 5753 5754 5754 5754 5755 5756 5756 5756 5757 5757 5758 5758 5759 5760 5761 5762 5763 5763 5764 5764 5764 5764 5764 5764 5764 5764 5764 5765 5765 5766 5767 5767 5766 5766 5765 5765 5764 5763 5761 5760 5760 5760 5760 5761 5761 5761 5761 5761 5762 5762 5762 5762 5762 5762 5762 5762 5762 5763 5763 5763 5763 5764 5764 5764 5764 5764 5764 5764 5765 5765 5766 5766 5766
5735 5736 5738 5739 5739 5739 5739 5740 5740 5741 5742 5743 5744 5746 5748 5750 5752 5752 5751 5750 5749 5748 5749 5750 5751 5751 5752 5752 5753 5754 5754 5754 5754 5755 5756 5757 5758 5760 5761 5761 5762 5762 5762 5762 5762 5762 5761 5761 5762 5762 5762 5763 5763 5763 5764 5763 5763 5764 5763 5763 5762 5760 5759 5758 5758 5757 5757 5758 5758 5759 5759 5759 5759 5759 5760 5760 5760 5760 5760 5760 5760 5760 5760 5760 5761 5761 5761 5761 5762 5762 5762 5762 5762 5762 5763 5763 5764
5732 5733 5734 5735 5736 5737 5737 5737 5737 5738 5739 5741 5742 5742 5744 5746 5748 5748 5748 5748 5748 5747 5746 5747 5748 5748 5749 5749 5750 5751 5751 5752 5752 5753 5754 5756 5757 5758 5759 5759 5759 5760 5760 5760 5760 5759 5759 5759 5759 5759 5760 5760 5760 5760 5760 5760 5760 5760 5760 5760 5759 5758 5757 5756 5756 5755 5755 5755 5756 5756 5757 5757 5757 5757 5757 5757 5757 5757 5757 5757 5758 5758 5758 5758 5758 5758 5758 5759 5759 5759 5759 5759 5759 5760 5760 5760 5761
5729 5730 5731 5732 5734 5735 5735 5735 5735 5735 5736 5738 5739 5739 5740 5742 5744 5746 5745 5746 5746 5746 5745 5744 5745 5745 5746 5746 5747 5748 5749 5750 5751 5752 5753 5753 5754 5755 5755 5756 5756 5757 5758 5758 5758 5757 5757 5757 5757 5757 5757 5757 5757 5757 5757 5756 5756 5756 5757 5757 5756 5755 5755 5754 5754 5754 5754 5754 5754 5754 5754 5754 5754 5754 5754 5755 5755 5755 5755 5755 5755 5755 5755 5755 5756 5756 5756 5756 5756 5756 5757 5757 5757 5757 5757 5757 5758
5727 5728 5728 5729 5730 5732 5733 5734 5734 5734 5734 5735 5736 5736 5736 5738 5741 5743 5743 5742 5743 5743 5742 5742 5743 5743 5743 5744 5745 5746 5746 5748 5750 5751 5751 5751 5751 5751 5752 5752 5753 5754 5755 5755 5755 5755 5754 5754 5753 5753 5753 5753 5752 5752 5752 5751 5751 5752 5752 5753 5754 5754 5753 5753 5753 5753 5753 5753 5753 5753 5753 5752 5752 5752 5752 5752 5752 5752 5752 5752 5753 5753 5753 5753 5753 5753 5754 5753 5754 5754 5754 5754 5754 5755 5755 5755 5755
5725 5726 5727 5727 5728 5730 5730 5731 5731 5732 5732 5733 5733 5733 5733 5734 5737 5739 5739 5739 5739 5739 5739 5739 5740 5741 5741 5742 5743 5743 5744 5747 5749 5750 5750 5749 5749 5749 5749 5750 5750 5751 5751 5752 5752 5752 5752 5751 5749 5748 5748 5748 5747 5747 5747 5747 5747 5747 5748 5750 5751 5752 5752 5752 5752 5752 5752 5752 5752 5752 5751 5751 5750 5750 5749 5749 5750 5750 5750 5750 5750 5750 5751 5751 5751 5751 5751 5751 5751 5751 5752 5752 5752 5752 5752 5752 5752
5723 5724 5725 5725 5725 5726 5727 5727 5728 5728 5729 5729 5730 5730 5731 5732 5732 5734 5736 5736 5735 5736 5736 5737 5737 5738 5739 5739 5740 5741 5743 5745 5747 5748 5748 5748 5748 5747 5747 5748 5749 5749 5749 5750 5750 5750 5749 5746 5742 5741 5741 5743 5743 5743 5744 5744 5743 5744 5746 5747 5749 5750 5750 5750 5750 5750 5750 5750 5750 5750 5750 5749 5749 5748 5748 5747 5747 5747 5748 5748 5748 5748 5749 5749 5749 5749 5749 5749 5749 5749 5749 5750 5750 5750 5750 5750 5750
5721 5722 5722 5722 5722 5723 5723 5724 5725 5725 5726 5726 5727 5728 5729 5729 5729 5731 5732 5732 5731 5732 5733 5734 5735 5736 5736 5737 5738 5739 5740 5742 5744 5744 5745 5745 5745 5745 5746 5746 5747 5747 5748 5748 5748 5747 5744 5742 5742 5741 5741 5741 5742 5742 5743 5743 5742 5743 5744 5744 5745 5747 5747 5747 5748 5748 5748 5748 5748 5748 5747 5747 5747 5747 5746 5746 5746 5746 5746 5746 5746 5746 5746 5747 5747 5747 5747 5747 5747 5747 5747 5747 5748 5748 5748 5748 5748
5718 5719 5719 5719 5720 5720 5721 5722 5722 5722 5723 5724 5724 5725 5726 5727 5726 5727 5728 5728 5728 5729 5730 5731 5732 5733 5733 5734 5734 5735 5737 5739 5740 5740 5741 5742 5743 5743 5744 5744 5744 5744 5745 5746 5746 5743 5741 5743 5746 5745 5743 5743 5742 5741 5740 5739 5739 5740 5740 5741 5742 5743 5745 5746 5746 5746 5746 5745 5745 5745 5745 5745 5745 5745 5745 5744 5744 5744 5744 5744 5744 5744 5744 5744 5745 5745 5745 5745 5745 5745 5745 5745 5745 5746 5746 5746 5746
5716 5716 5717 5718 5718 5718 5718 5719 5719 5720 5721 5721 5722 5722 5724 5725 5724 5723 5724 5724 5724 5725 5726 5727 5729 5730 5730 5731 5732 5733 5734 5735 5736 5737 5738 5738 5739 5740 5740 5740 5741 5741 5742 5742 5742 5740 5740 5742 5742 5741 5741 5741 5741 5738 5736 5735 5736 5737 5738 5739 5740 5741 5742 5744 5744 5744 5744 5743 5742 5742 5742 5742 5742 5742 5742 5743 5743 5743 5743 5743 5743 5742 5742 5742 5742 5743 5743 5743 5743 5743 5743 5744 5744 5744 5744 5744 5745
5713 5714 5715 5715 5715 5715 5716 5716 5717 5717 5718 5719 5720 5720 5721 5722 5721 5720 5721 5721 5721 5722 5723 5724 5725 5726 5728 5729 5730 5730 5731 5732 5733 5733 5734 5735 5735 5736 5737 5737 5737 5737 5738 5738 5738 5738 5737 5737 5737 5738 5739 5738 5738 5736 5734 5734 5735 5735 5736 5737 5738 5739 5740 5741 5742 5742 5741 5741 5740 5740 5740 5740 5740 5740 5740 5740 5740 5741 5741 5741 5741 5741 5741 5741 5741 5741 5741 5742 5742 5742 5742 5742 5742 5742 5742 5742 5743
5712 5713 5713 5713 5713 5713 5713 5714 5714 5714 5715 5716 5717 5717 5718 5718 5718 5717 5717 5718 5719 5720 5721 5722 5723 5724 5725 5726 5727 5728 5728 5728 5729 5729 5729 5731 5732 5733 5733 5734 5734 5734 5735 5735 5734 5734 5733 5732 5732 5734 5735 5735 5736 5735 5733 5733 5733 5732 5732 5734 5735 5737 5737 5738 5739 5739 5739 5739 5738 5738 5738 5738 5738 5738 5738 5738 5738 5738 5739 5740 5740 5740 5740 5740 5740 5740 5740 5740 5741 5741 5740 5740 5740 5740 5740 5741 5741
5710 5711 5710 5711 5711 5711 5711 5711 5712 5712 5713 5714 5714 5714 5715 5715 5715 5715 5715 5716 5717 5718 5718 5720 5721 5722 5722 5723 5724 5725 5725 5725 5725 5726 5726 5727 5729 5730 5731 5731 5731 5732 5732 5731 5731 5731 5730 5728 5728 5729 5730 5732 5732 5731 5731 5731 5730 5730 5729 5731 5732 5734 5734 5735 5736 5736 5736 5736 5736 5736 5736 5736 5736 5735 5735 5735 5735 5735 5736 5737 5738 5738 5739 5739 5739 5739 5740 5739 5739 5739 5739 5739 5739 5739 5739 5739 5739
5707 5708 5708 5708 5709 5709 5709 5709 5710 5710 5710 5711 5711 5711 5712 5712 5712 5712 5713 5714 5715 5716 5717 5718 5719 5720 5721 5721 5722 5722 5721 5722 5723 5724 5724 5725 5726 5727 5727 5728 5729 5729 5729 5729 5728 5728 5728 5726 5724 5724 5725 5727 5727 5727 5728 5728 5728 5728 5727 5728 5729 5731 5732 5732 5733 5733 5733 5734 5734 5735 5735 5735 5734 5733 5733 5733 5733 5733 5733 5733 5734 5735 5736 5736 5737 5737 5737 5738 5738 5738 5738 5738 5738 5738 5738 5738 5737
5703 5704 5706 5706 5706 5706 5707 5707 5707 5708 5708 5708 5709 5710 5710 5710 5710 5710 5711 5712 5713 5714 5715 5716 5717 5718 5719 5719 5719 5719 5719 5720 5721 5722 5722 5723 5723 5723 5724 5725 5726 5727 5727 5726 5725 5725 5725 5724 5722 5721 5722 5723 5723 5724 5724 5724 5725 5726 5726 5726 5727 5728 5729 5730 5731 5731 5731 5731 5732 5733 5733 5733 5732 5732 5731 5731 5730 5731 5731 5731 5731 5731 5732 5733 5734 5734 5734 5735 5735 5736 5736 5737 5737 5737 5737 5737 5736
5701 5702 5703 5704 5703 5704 5705 5705 5705 5705 5706 5706 5707 5708 5708 5707 5707 5707 5708 5709 5710 5711 5712 5713 5714 5714 5715 5716 5717 5717 5717 5718 5719 5720 5721 5721 5721 5721 5721 5721 5722 5723 5724 5723 5723 5722 5722 5722 5721 5720 5719 5720 5720 5720 5721 5721 5722 5723 5724 5724 5725 5725 5726 5728 5728 5729 5729 5729 5730 5730 5730 5730 5730 5730 5730 5729 5729 5729 5729 5729 5728 5729 5729 5730 5731 5732 5733 5733 5733 5733 5734 5734 5734 5735 5735 5735 5735